Flag for U.S.A. Weather past 2 weeks in Racine, Wisconsin, U.S.A.

Now
27 °F

Light snow. Ice fog.


Feels Like: 16 °F
Forecast: 23 / 30 °F
Wind: 13 mph from Northeast

Location: Batten International Airport

Current Time: Mar 27, 2015 at 2:05:16 AM

Latest Report: Mar 27, 2015 at 1:03 AM


Visibility: 5 mi

Pressure: 30.11 "Hg

Humidity: 85%

Dew point: 23 °F

Location of RacineLocation

Historic Weather in Racine — Graph

°F

Racine temperature yesterday

Maximum temperature yesterday: 40 °F (at 11:53 AM)
Minimum temperature yesterday: 29 °F (at 11:53 PM)
Average temperature yesterday: 36 °F

Past Weeks' High & Low Weather Summary

 TemperatureHumidityPressure
High70 °F (Mar 16, 4:53 PM)93% (Mar 17, 12:53 AM)30.55 "Hg (Mar 17, 12:53 AM)
Low19 °F (Mar 24, 3:53 AM)25% (Mar 18, 12:53 PM)29.70 "Hg (Mar 16, 4:53 PM)
Average39 °F62%30.17 "Hg
* Reported Mar 12 1:53 AM — Mar 27 1:03 AM, Racine, Weather by CustomWeather, © 2015

Note: Actual official high and low records may vary slightly from our data, if they occured in-between our weather recording intervals... More about our weather records

Advertising

Racine weather history for previous 24 hours

 ConditionsComfort  
Time TempWeatherWind HumidityBarometerVisibility
1:03 AM
Fri, Mar 27
27 °FLight snow. Ice fog.13 mph85%30.11 "Hg5 mi
12:53 AM28 °FLight snow. Mostly cloudy.15 mph81%30.13 "Hg4 mi
11:53 PM
Thu, Mar 26
29 °FLight snow. Overcast.13 mph82%30.12 "Hg4 mi
10:53 PM31 °FOvercast.12 mph69%30.11 "Hg10 mi
9:53 PM31 °FOvercast.10 mph54%30.09 "Hg10 mi
8:53 PM32 °FOvercast.12 mph52%30.08 "Hg10 mi
7:53 PM33 °FOvercast.10 mph56%30.06 "Hg10 mi
6:53 PM34 °FOvercast.10 mph54%30.05 "Hg10 mi
5:53 PM35 °FOvercast.8 mph54%30.04 "Hg10 mi
4:53 PM36 °FOvercast.13 mph54%30.02 "Hg10 mi
3:53 PM37 °FOvercast.14 mph52%30.00 "Hg10 mi
2:53 PM37 °FOvercast.10 mph50%29.98 "Hg10 mi
1:53 PM38 °FOvercast.10 mph53%29.98 "Hg10 mi
12:53 PM39 °FOvercast.9 mph48%29.98 "Hg10 mi
11:53 AM40 °FMostly cloudy.8 mph47%29.98 "Hg10 mi
10:53 AM38 °FOvercast.8 mph53%29.99 "Hg10 mi
9:53 AM38 °FOvercast.10 mph51%29.99 "Hg10 mi
8:53 AM37 °FOvercast.8 mph57%29.98 "Hg10 mi
7:53 AM36 °FOvercast.7 mph57%29.99 "Hg10 mi
6:53 AM35 °FOvercast.9 mph61%29.98 "Hg10 mi
5:53 AM36 °FOvercast.6 mph59%29.97 "Hg10 mi
4:53 AM36 °FOvercast.8 mph62%29.96 "Hg10 mi
3:53 AM36 °FOvercast.6 mph64%29.98 "Hg10 mi
2:53 AM36 °FOvercast.6 mph64%29.99 "Hg10 mi
2:01 AM36 °FOvercast.7 mph67%30.01 "Hg10 mi
Weather by CustomWeather, © 2015

See weather overviewHow to use our weather pages